Satellite-Ground Cal/Val Region Overpasses Predictions

Prediction of Satellite NPP Overpassing Cal/Val Region: PacNW

Region Location: (Latitude: 10.00, Longitude: 139.50) to (Latitude: 22.70, Longitude: 165.60).

Table of predicted overpasses for the next 14.0 days since TLE Epoch: 1/1/2015
Interval Starting Time Starting Location Ending Time Ending Location
1 01/02/2015 02:17:48 ( 19.30, 165.59) 01/02/2015 02:18:46 ( 22.70, 164.75)
2 01/02/2015 03:56:40 ( 10.03, 142.38) 01/02/2015 04:00:07 ( 22.18, 139.51)
3 01/02/2015 14:47:02 ( 22.65, 164.96) 01/02/2015 14:50:37 ( 10.03, 161.97)
4 01/02/2015 16:28:31 ( 22.70, 139.60) 01/02/2015 16:28:37 ( 22.35, 139.51)
5 01/03/2015 03:37:36 ( 10.04, 147.14) 01/03/2015 03:41:11 ( 22.66, 144.15)
6 01/03/2015 16:09:28 ( 22.69, 144.35) 01/03/2015 16:13:04 ( 10.01, 141.35)
7 01/04/2015 03:18:33 ( 10.05, 151.90) 01/04/2015 03:22:08 ( 22.67, 148.90)
8 01/04/2015 15:50:24 ( 22.68, 149.11) 01/04/2015 15:53:59 ( 10.06, 146.12)
9 01/05/2015 02:59:29 ( 10.06, 156.65) 01/05/2015 03:03:04 ( 22.68, 153.66)
10 01/05/2015 15:31:21 ( 22.67, 153.87) 01/05/2015 15:34:56 ( 10.04, 150.88)
11 01/06/2015 02:40:25 ( 10.01, 161.43) 01/06/2015 02:44:01 ( 22.69, 158.42)
12 01/06/2015 15:12:18 ( 22.66, 158.62) 01/06/2015 15:15:53 ( 10.03, 155.63)
13 01/07/2015 02:22:05 ( 12.61, 165.59) 01/07/2015 02:24:56 ( 22.64, 163.19)
14 01/07/2015 04:02:51 ( 10.03, 140.81) 01/07/2015 04:04:27 ( 15.67, 139.50)
15 01/07/2015 14:53:14 ( 22.65, 163.38) 01/07/2015 14:56:49 ( 10.02, 160.39)
16 01/08/2015 03:43:48 ( 10.05, 145.56) 01/08/2015 03:47:23 ( 22.67, 142.57)
17 01/08/2015 14:37:13 ( 11.95, 165.59) 01/08/2015 14:37:46 ( 10.01, 165.15)
18 01/08/2015 16:15:40 ( 22.68, 142.78) 01/08/2015 16:19:15 ( 10.05, 139.78)
19 01/09/2015 03:24:43 ( 10.00, 150.33) 01/09/2015 03:28:19 ( 22.68, 147.33)
20 01/09/2015 15:56:36 ( 22.66, 147.53) 01/09/2015 16:00:11 ( 10.04, 144.54)
21 01/10/2015 03:05:40 ( 10.01, 155.09) 01/10/2015 03:09:16 ( 22.70, 152.08)
22 01/10/2015 15:37:33 ( 22.65, 152.29) 01/10/2015 15:41:08 ( 10.02, 149.30)
23 01/11/2015 02:46:36 ( 10.03, 159.85) 01/11/2015 02:50:11 ( 22.65, 156.86)
24 01/11/2015 15:18:28 ( 22.69, 157.06) 01/11/2015 15:22:04 ( 10.01, 154.05)
25 01/12/2015 02:27:33 ( 10.05, 164.60) 01/12/2015 02:31:08 ( 22.67, 161.61)
26 01/12/2015 14:59:25 ( 22.67, 161.82) 01/12/2015 15:03:00 ( 10.05, 158.82)
27 01/13/2015 03:49:59 ( 10.02, 144.00) 01/13/2015 03:53:35 ( 22.70, 140.99)
28 01/13/2015 14:41:29 ( 18.67, 165.60) 01/13/2015 14:43:56 ( 10.03, 163.58)
29 01/13/2015 16:21:51 ( 22.64, 141.20) 01/13/2015 16:23:50 ( 15.66, 139.51)
30 01/14/2015 03:30:55 ( 10.03, 148.75) 01/14/2015 03:34:30 ( 22.66, 145.76)
31 01/14/2015 16:02:47 ( 22.68, 145.97) 01/14/2015 16:06:23 ( 10.00, 142.96)
32 01/15/2015 03:11:52 ( 10.05, 153.51) 01/15/2015 03:15:27 ( 22.68, 150.52)


NCC Satellite Cal/Val Overpasses Prediction Service
